Location: Bolzano
(46.5170°N, 11.3670°E)
Time: 15:53:34
(UTC+01:00)

ISS - Pass Details

Date: 05 December 2021
Orbit: 413 x 422 km, 51.6° (Epoch: 27 January)

Event Time Altitude Azimuth Distance (km) Brightness Sun altitude
Rises 16:59:33 0° 295° (WNW) 2,387 0.7 -5.6°
Reaches altitude 10° 17:01:43 10° 301° (WNW) 1,518 -0.4 -5.9°
Maximum altitude 17:05:03 50° 18° (NNE) 545 -3.4 -6.4°
Drops below altitude 10° 17:08:21 10° 96° (E) 1,507 -1.5 -6.9°
Enters shadow 17:09:20 - 99° (E) 1,896 -0.9 -7.1°
